Weather History for LICZ - July, 2013

Change the Weather History Date:

Wednesday, July 31, 2013

  Actual Average Record
Temperature  
Mean Temperature 82 °F -  
Max Temperature 94 °F 92 °F 97 °F (2012)
Min Temperature 70 °F 67 °F 62 °F (2007)
Cooling Degree Days 17    
Growing Degree Days 32 (Base 50)    
Moisture  
Dew Point 69 °F    
Average Humidity 67    
Maximum Humidity 100    
Minimum Humidity 37    
Precipitation  
Precipitation 0.00 in 0.02 in - ()
Sea Level Pressure  
Sea Level Pressure 29.87 in    
Wind  
Wind Speed 7 mph ()    
Max Wind Speed 18 mph    
Max Gust Speed -    
Visibility 7.2 miles    
Events      
Averages and records for this station are not official NWS values.
T = Trace of Precipitation, MM = Missing Value Source: Averaged Metar Reports

Daily Weather History Graph

Daily Weather History Graph

Search for Another Location

Airport or City:

Trip Planner

Search our weather history database for the weather conditions in past years. The results will help you decide how hot, cold, wet, or windy it might be!

Date:

Astronomy

Jul. 31, 2013 Rise Set
Actual Time 6:03 AM CEST 8:09 PM CEST
Civil Twilight 5:34 AM CEST 8:38 PM CEST
Nautical Twilight 4:59 AM CEST 9:13 PM CEST
Astronomical Twilight 4:20 AM CEST 9:51 PM CEST
Moon 12:47 AM CEST (7/31) 3:09 PM CEST (7/31)
Length of Visible Light 15h 03m
Length of Day
14h 05m
Waning Crescent, 34% of the Moon is Illuminated
Jul 31
Waning Crescent
Aug 6
New
Aug 14
First Quarter
Aug 21
Full
Aug 28
Last Quarter

Hourly Weather History & Observations

Time (CEST) Temp. Heat Index Dew Point Humidity Pressure Visibility Wind Dir Wind Speed Gust Speed Precip Events Conditions
12:55 AM 77.0 °F - 69.8 °F 78% 29.92 in - West 5.8 mph - N/A   Clear
1:55 AM 75.2 °F - 66.2 °F 73% 29.89 in - WSW 5.8 mph - N/A   Clear
2:00 AM 75 °F - 66 °F 68% 29.91 in 7 mi WSW 5.8 mph - -  
2:55 AM 75.2 °F - 66.2 °F 73% 29.92 in - SW 5.8 mph - N/A   Clear
3:55 AM 71.6 °F - 64.4 °F 78% 29.89 in - Calm Calm - N/A   Clear
4:55 AM 69.8 °F - 66.2 °F 88% 29.89 in 6.2 mi East 4.6 mph - N/A   Mostly Cloudy
5:00 AM 69 °F - 66 °F 89% 29.90 in 7 mi East 4.6 mph - -   Mostly Cloudy
5:55 AM 69.8 °F - 68.0 °F 94% 29.89 in 6.2 mi SW 2.3 mph - N/A   Mostly Cloudy
6:55 AM 71.6 °F - 66.2 °F 83% 29.89 in 6.2 mi WNW 4.6 mph - N/A   Scattered Clouds
7:55 AM 77.0 °F - 66.2 °F 69% 29.89 in 6.2 mi WNW 5.8 mph - N/A   Scattered Clouds
8:00 AM 76 °F - 67 °F 66% 29.91 in 9 mi WNW 5.8 mph - -   Partly Cloudy
8:55 AM 82.4 °F 86.3 °F 69.8 °F 66% 29.89 in 6.2 mi West 2.3 mph - N/A   Partly Cloudy
9:55 AM 86.0 °F 90.4 °F 69.8 °F 58% 29.89 in 6.2 mi SSW 2.3 mph - N/A   Partly Cloudy
10:55 AM 89.6 °F 92.2 °F 66.2 °F 46% 29.89 in 6.2 mi West 2.3 mph - N/A   Partly Cloudy
11:00 AM 89 °F - 67 °F 38% 29.89 in 12 mi West 2.3 mph - -   Scattered Clouds
11:55 AM 91.4 °F 94.0 °F 66.2 °F 43% 29.86 in 6.2 mi West 2.3 mph - N/A   Partly Cloudy
12:55 PM 91.4 °F 94.0 °F 66.2 °F 43% 29.86 in 6.2 mi East 13.8 mph - N/A   Partly Cloudy
1:55 PM 91.4 °F 95.4 °F 68.0 °F 46% 29.83 in 6.2 mi ESE 16.1 mph - N/A   Partly Cloudy
2:00 PM 91 °F - 68 °F 37% 29.85 in 12 mi ESE 16.1 mph - -   Scattered Clouds
2:55 PM 89.6 °F 93.4 °F 68.0 °F 49% 29.83 in 6.2 mi ESE 18.4 mph - N/A   Partly Cloudy
3:55 PM 89.6 °F 93.4 °F 68.0 °F 49% 29.83 in 6.2 mi East 18.4 mph - N/A   Partly Cloudy
4:55 PM 87.8 °F 91.4 °F 68.0 °F 52% 29.83 in 6.2 mi East 18.4 mph - N/A   Partly Cloudy
5:00 PM 88 °F - 67 °F 41% 29.84 in 12 mi East 18.4 mph - -   Scattered Clouds
5:55 PM 86.0 °F 89.4 °F 68.0 °F 55% 29.83 in 6.2 mi East 18.4 mph - N/A   Partly Cloudy
6:55 PM 84.2 °F 90.9 °F 73.4 °F 70% 29.83 in 6.2 mi East 16.1 mph - N/A   Partly Cloudy
7:55 PM 82.4 °F 88.2 °F 73.4 °F 74% 29.83 in 6.2 mi East 13.8 mph - N/A   Partly Cloudy
8:00 PM 82 °F - 74 °F 71% 29.84 in 12 mi East 13.8 mph - -   Scattered Clouds
8:55 PM 80.6 °F 85.4 °F 73.4 °F 79% 29.86 in 6.2 mi East 8.1 mph - N/A   Scattered Clouds
9:55 PM 78.8 °F - 73.4 °F 83% 29.89 in 6.2 mi SE 5.8 mph - N/A   Scattered Clouds
10:55 PM 78.8 °F - 75.2 °F 89% 29.89 in 6.2 mi SE 5.8 mph - N/A   Partly Cloudy
11:00 PM 79 °F - 76 °F 86% 29.90 in 6 mi SE 5.8 mph - -   Scattered Clouds
11:55 PM 77.0 °F - 77.0 °F 100% 29.89 in 6.2 mi South 5.8 mph - N/A   Partly Cloudy